GFSCGP_700_temp_021.txt.gz
Temp
1 1 3 7 6 6 7 7 8 8 9 9 10 10 11 12 12 12 12 13 13 13 13 12 12 12 12 11 11 11 11 11 11 11 11 11 11 10 9 9 8 8 7 7
0 1 5 4 4 4 5 7 8 9 9 10 10 11 11 12 12 12 12 13 13 13 13 12 12 12 12 11 11 11 11 11 11 12 12 11 10 10 10 9 8 7 6 6
0 2 2 2 3 4 5 5 7 7 9 10 10 10 11 12 12 12 12 12 12 12 12 12 12 12 11 11 11 11 11 11 11 12 12 11 11 10 10 8 7 6 6 6
0 1 2 3 3 4 5 6 6 7 8 8 9 9 10 11 11 12 12 12 12 12 12 12 12 12 11 11 11 11 11 11 12 12 12 11 11 9 8 7 8 7 6 6
0 1 2 2 3 4 5 6 6 8 8 9 9 10 10 10 11 11 12 12 12 13 13 13 12 12 11 11 11 11 11 11 12 12 11 10 9 9 7 8 7 6 6 5
1 1 1 2 3 4 5 6 6 7 8 7 9 10 10 10 11 11 12 12 12 13 13 13 12 12 11 11 11 11 11 12 12 11 10 9 8 8 7 7 6 6 5 4
1 1 2 2 2 4 5 5 5 5 6 6 9 10 10 11 11 12 12 12 12 13 13 13 12 12 11 11 11 11 12 11 11 10 9 9 8 7 7 6 6 5 4 4
1 0 1 2 2 3 4 5 5 3 5 7 9 10 11 12 12 12 12 12 12 12 12 12 12 12 11 12 11 12 11 11 10 9 9 8 6 7 6 6 5 5 4 4
-1 -0 1 1 2 3 4 4 6 6 8 8 10 10 11 12 13 13 13 12 13 12 12 12 12 12 12 12 12 11 11 10 9 9 8 7 7 7 6 5 5 4 5 5
-2 -2 -1 2 1 2 3 5 6 6 5 5 10 11 11 13 14 13 13 13 12 12 12 12 11 12 12 12 11 11 10 9 9 8 7 7 7 6 6 5 4 4 5 4
-3 -2 -1 -1 -1 2 4 4 5 6 7 6 6 9 12 13 14 14 13 13 12 12 12 12 12 12 12 11 11 10 9 9 8 8 7 7 7 6 5 5 4 5 5 4
-3 -3 -3 -2 1 2 1 2 5 5 7 8 9 10 13 13 14 14 13 13 12 12 12 12 12 12 12 11 10 9 9 8 8 8 7 6 6 5 4 5 5 5 4 4
-3 -3 -3 -2 2 2 2 3 5 6 7 8 8 10 12 12 13 13 13 13 12 12 12 12 12 12 11 10 10 9 8 8 8 7 7 6 5 4 4 4 4 5 4 4
-4 -5 -4 -3 -1 -3 -2 1 3 5 7 8 9 10 11 12 13 12 12 12 12 12 12 12 12 11 10 10 9 8 8 8 7 6 3 5 4 4 4 4 4 5 4 4
-5 -5 -4 -4 -3 -3 -2 -2 1 2 5 8 9 10 11 12 12 12 12 12 12 12 12 12 11 10 10 9 9 8 8 7 6 3 3 4 4 5 4 4 4 4 4 4
-5 -4 -4 -3 -1 -2 -2 -1 0 2 5 6 9 10 11 12 12 11 11 12 11 12 12 11 10 10 9 9 9 8 8 6 6 2 4 4 5 5 5 5 4 4 4 4
-4 -4 -4 -3 -2 -2 -1 2 3 5 6 7 8 10 9 8 10 10 10 10 10 10 10 11 10 10 9 8 8 8 7 6 6 4 3 5 5 5 5 5 4 4 4 4
-3 -4 -4 -3 -3 -2 2 2 5 5 6 7 9 10 10 10 10 9 9 9 9 9 9 10 10 9 9 8 8 7 7 6 6 3 4 5 5 5 5 4 4 4 4 4
-3 -3 -4 -3 -3 -1 1 0 1 3 5 6 8 8 3 7 9 10 9 9 9 9 9 10 9 9 9 8 8 7 7 6 5 4 5 5 5 5 5 4 4 4 3 3
-3 -3 -4 -3 -3 -1 -1 1 2 2 3 2 6 8 7 7 10 9 9 9 9 9 9 9 9 10 9 8 8 8 7 6 5 4 4 5 5 5 5 4 4 4 3 3
-3 -3 -3 -3 -3 -3 -1 1 3 2 2 2 4 6 7 8 9 9 9 9 9 9 9 9 9 10 9 9 8 8 7 6 5 3 4 5 5 5 5 4 4 4 3 3
-4 -4 -3 -3 -3 -2 -2 -0 1 0 0 1 3 4 7 7 8 9 9 10 9 9 9 9 9 10 9 9 9 8 8 7 5 5 5 5 5 4 5 5 4 4 4 3
-4 -4 -4 -3 -3 -2 -2 -2 -1 -1 -0 1 2 3 4 6 8 8 9 9 9 9 8 8 9 10 10 9 9 9 8 7 4 5 6 5 5 5 5 5 5 5 4 4
-4 -4 -3 -3 -3 -2 -2 -2 -2 -1 0 1 1 2 3 5 7 8 9 9 9 9 9 9 9 10 10 9 9 9 8 7 6 6 6 5 6 6 5 5 5 5 4 4
-5 -4 -4 -3 -3 -3 -2 -2 -2 -1 -0 0 0 1 2 4 5 8 9 8 8 8 8 9 10 10 10 9 9 9 9 8 8 8 7 6 6 6 6 5 5 6 5 3
-4 -4 -4 -4 -4 -4 -3 -2 -2 -1 -1 -0 -0 0 1 2 4 7 8 8 7 7 8 8 9 9 10 9 9 9 9 9 9 9 8 7 7 6 7 6 7 7 6 6

GFSCGP_700_temp_024.txt.gz
Temp
1 1 2 5 4 3 5 5 7 7 7 7 8 9 9 10 10 11 11 11 12 12 12 12 12 12 12 12 12 12 12 12 11 11 11 11 11 10 10 9 8 8 8 7
-1 1 3 2 2 2 3 5 5 6 7 7 8 9 9 9 10 10 11 11 12 12 12 12 12 12 12 12 12 12 12 11 11 11 11 11 10 10 9 8 7 8 8 7
-1 -0 0 1 1 2 3 3 4 4 6 8 7 8 8 9 10 10 10 11 11 12 12 12 12 12 12 12 12 11 11 10 11 11 11 10 10 9 9 8 8 7 7 7
-1 -1 -0 0 1 2 2 3 4 4 5 5 7 7 8 9 10 10 11 11 11 12 12 12 12 12 12 12 12 11 11 11 11 11 11 11 10 9 8 7 7 8 7 6
-1 0 0 0 1 1 2 3 4 4 5 5 6 7 9 8 9 10 11 11 12 12 12 12 12 12 12 12 12 11 11 11 11 11 11 11 10 9 9 7 8 7 6 6
-1 -0 0 1 1 2 2 3 4 5 5 4 6 7 8 9 10 10 12 12 12 12 12 12 12 12 13 12 12 11 11 11 11 11 11 11 10 9 8 8 7 7 6 5
-0 -0 0 1 1 1 2 2 2 2 3 4 7 7 7 10 10 11 11 11 12 12 12 12 12 13 12 12 11 11 11 11 11 11 11 10 9 8 8 7 6 6 5 4
-0 -0 1 1 1 1 2 2 3 1 1 4 6 7 8 10 10 12 11 12 11 11 12 12 12 12 12 11 11 11 11 11 11 11 10 9 8 8 7 6 6 5 4 4
-1 -0 -0 0 0 0 2 2 3 3 5 4 7 8 9 10 12 12 12 12 11 12 12 12 12 12 12 11 11 11 11 11 10 9 8 8 7 7 6 6 5 4 4 4
-3 -2 -0 0 -0 1 1 2 3 3 2 2 5 7 9 12 12 12 12 13 12 12 11 12 12 11 11 11 11 11 11 10 9 8 8 7 7 7 6 5 5 4 4 4
-3 -3 -2 -2 -1 1 1 2 2 3 4 3 3 6 11 11 11 13 13 13 13 12 12 12 12 11 11 11 11 10 10 9 8 7 7 7 7 6 6 5 5 5 4 4
-4 -4 -4 -2 -1 -0 0 1 0 1 3 5 6 6 11 11 11 12 13 13 12 12 12 12 12 12 11 11 10 10 9 8 8 7 7 7 7 6 5 4 5 5 4 4
-4 -4 -4 -2 -0 -1 -2 -0 0 1 2 4 5 6 11 10 11 13 14 13 12 12 12 12 12 12 11 10 10 9 8 8 8 8 7 7 6 5 5 4 5 4 4 4
-5 -5 -5 -6 -2 -3 -2 -1 -1 0 2 4 4 6 11 11 11 11 13 13 13 12 12 12 12 11 10 10 9 9 8 8 8 8 7 6 5 4 4 4 5 4 4 4
-5 -5 -5 -4 -4 -4 -3 -2 -1 -1 1 0 5 6 8 10 10 11 12 13 13 12 12 12 11 11 10 10 9 9 8 8 8 7 4 5 5 5 4 4 4 4 4 4
-5 -5 -4 -4 -3 -3 -3 0 0 0 0 -0 5 7 8 9 10 11 12 12 12 12 11 11 11 10 10 9 9 8 8 8 7 3 4 5 5 5 5 5 5 4 4 4
-5 -5 -5 -4 -4 -2 -3 0 1 1 2 3 5 6 7 8 9 10 11 11 12 11 11 11 10 10 9 9 9 8 8 7 6 4 4 5 5 5 5 5 5 4 4 4
-5 -5 -4 -5 -4 -3 -2 -0 2 3 4 4 6 7 7 8 8 10 10 10 11 11 11 11 10 9 9 8 9 8 7 7 5 4 4 4 5 5 5 5 4 4 4 4
-4 -5 -5 -4 -3 -2 -1 -1 1 5 4 5 7 7 7 7 8 6 9 9 10 11 11 10 9 9 8 8 8 8 7 6 5 4 4 4 5 5 5 5 4 4 4 4
-3 -5 -5 -4 -3 -3 -1 -1 -1 2 4 4 5 7 7 8 8 8 7 8 9 10 10 10 9 9 8 8 8 8 8 6 6 5 4 4 5 5 5 5 4 4 3 4
-4 -4 -4 -5 -4 -3 -3 -2 -1 0 2 3 5 5 6 7 7 7 8 9 9 9 10 9 9 9 8 8 8 8 8 7 7 5 5 5 5 5 5 4 3 3 3 3
-4 -4 -3 -4 -3 -3 -3 -2 -0 -0 1 2 3 4 4 6 6 6 8 9 9 9 9 9 8 8 8 8 8 8 8 7 7 5 5 5 5 5 5 4 3 3 3 3
-4 -5 -4 -4 -3 -3 -3 -2 -1 0 1 1 2 2 3 2 4 6 8 8 9 9 9 9 9 8 7 8 9 8 8 8 8 6 5 5 5 5 5 4 4 4 3 3
-5 -4 -3 -4 -3 -3 -2 -2 -1 -1 -1 0 1 3 4 4 6 6 7 8 9 9 9 9 9 8 8 8 8 9 9 9 8 7 5 5 5 5 5 5 4 4 4 4
-5 -4 -4 -3 -3 -3 -2 -2 -2 -1 -1 -0 1 3 4 5 6 6 7 8 8 9 9 9 9 9 8 8 8 9 9 9 8 8 7 6 6 6 6 6 5 4 4 3
-5 -5 -4 -4 -3 -3 -2 -3 -2 -1 -1 -0 0 2 4 5 6 6 8 8 8 9 9 9 9 9 9 8 8 9 9 9 9 8 7 7 6 6 6 6 6 6 6 5

GFSCGP_700_temp_030.txt.gz
Temp
-2 -1 -0 1 2 1 2 2 3 3 4 4 6 7 8 8 9 9 10 11 11 11 11 11 12 11 12 12 12 12 12 12 12 12 12 12 12 11 11 11 10 9 9 8
-3 -2 -1 -1 -0 0 1 2 2 3 4 4 5 6 7 7 9 10 10 11 11 11 11 11 12 11 11 11 11 11 12 12 12 12 12 11 11 11 11 10 10 9 8 8
-2 -2 -2 -1 -1 -0 0 1 1 1 3 3 4 5 6 8 8 9 10 10 11 11 11 11 11 11 11 11 11 11 12 12 12 11 11 11 11 10 10 10 10 9 8 7
-2 -2 -2 -2 -1 -1 -0 0 0 1 2 3 4 2 4 8 9 9 10 10 11 11 11 12 11 11 11 11 11 11 12 12 12 11 11 11 10 10 10 9 9 8 7 7
-2 -2 -1 -1 -1 -1 -1 -0 0 0 1 2 3 3 5 7 10 10 10 11 10 11 11 11 11 11 11 11 11 11 12 12 12 11 11 11 10 10 10 10 9 9 7 7
-3 -2 -2 -1 -1 -1 -0 -0 0 1 1 0 2 3 5 6 9 10 10 11 12 11 11 11 11 11 11 11 11 12 12 12 12 11 11 11 10 10 10 10 9 9 8 7
-3 -2 -2 -1 -1 -1 -1 -0 -2 -2 -2 -0 3 2 5 7 7 9 10 10 11 10 11 11 11 11 11 12 12 12 12 12 11 11 11 11 10 10 10 10 8 7 7 6
-4 -2 -2 -1 -1 -1 -0 -0 -1 -1 -1 1 2 2 3 6 8 9 9 10 10 11 10 11 11 11 12 12 12 12 12 11 11 11 11 10 11 10 10 8 7 7 6 6
-3 -4 -3 -1 -1 -1 -1 -0 1 1 1 1 3 3 4 8 8 8 9 10 10 10 11 11 11 12 12 12 12 11 11 11 11 11 10 10 10 9 8 7 7 6 6 5
-4 -3 -3 -3 -3 -1 -1 -0 0 0 -1 -0 1 3 4 7 8 8 8 9 10 11 12 11 12 12 11 11 11 11 11 11 11 10 10 10 9 8 7 6 6 6 5 5
-4 -4 -2 -2 -2 -1 -1 -0 -0 0 1 -1 0 3 6 7 8 7 8 10 11 12 12 12 12 11 11 11 11 11 11 11 11 10 9 9 8 7 7 6 6 5 5 4
-4 -4 -4 -3 -2 -2 -2 -1 -1 -0 1 1 1 2 6 5 6 7 9 9 12 12 12 12 12 11 11 11 11 11 11 11 10 9 8 8 8 7 7 6 6 5 5 4
-5 -5 -5 -3 -3 -3 -3 -2 -2 -2 -1 -1 -0 2 5 7 7 7 8 9 11 12 12 12 11 11 11 10 11 11 11 10 9 8 8 8 7 7 6 6 5 4 5 4
-5 -6 -5 -5 -3 -4 -4 -3 -3 -3 -3 -1 -1 0 3 5 6 6 7 8 10 11 12 11 11 11 11 11 11 10 10 9 8 8 8 7 7 6 5 5 4 4 4 4
-6 -6 -5 -5 -5 -4 -4 -3 -3 -3 -4 -3 -2 -0 2 3 4 5 6 7 9 10 11 11 11 11 11 11 10 10 9 8 8 8 7 6 6 5 5 4 4 4 4 4
-6 -6 -6 -6 -5 -4 -4 -3 -3 -3 -3 -4 -4 -2 1 2 3 5 6 7 9 10 10 10 10 11 10 10 10 9 8 8 8 7 6 6 6 5 5 4 4 4 4 4
-6 -6 -6 -6 -5 -5 -5 -3 -2 -1 -1 -2 -3 -0 1 2 3 6 6 6 9 10 9 10 10 9 10 9 9 8 8 8 7 7 6 6 5 5 5 5 4 4 4 4
-6 -6 -6 -6 -5 -7 -3 -3 -3 -2 -1 -1 -1 1 2 2 4 5 6 6 8 10 9 9 9 9 9 9 9 8 8 7 7 6 6 5 5 5 5 5 5 4 4 4
-6 -6 -6 -6 -5 -4 -2 -3 -3 -3 -2 -1 -1 1 2 3 4 6 6 7 8 9 8 8 8 8 8 8 8 8 8 7 7 6 5 5 4 5 5 4 4 4 4 4
-5 -6 -6 -6 -6 -5 -4 -3 -3 -3 -2 -1 1 2 3 3 4 5 6 7 7 8 7 7 8 8 8 8 8 8 7 7 6 5 4 4 4 4 4 4 4 4 4 4
-5 -5 -6 -6 -5 -4 -4 -4 -4 -3 -2 -2 1 2 3 4 5 6 6 7 7 8 7 7 8 7 7 8 8 7 7 6 5 5 4 4 4 4 4 3 3 3 3 3
-5 -5 -5 -5 -5 -5 -4 -4 -3 -3 -1 -1 1 2 3 4 5 6 7 7 7 8 8 7 7 7 7 7 7 7 6 6 5 5 3 4 5 4 4 3 3 3 3 3
-5 -5 -5 -4 -4 -4 -4 -3 -3 -3 -2 -1 0 2 3 5 6 7 7 7 7 8 8 7 7 7 7 7 7 7 6 6 5 4 3 4 5 4 4 3 3 3 3 3
-5 -5 -5 -4 -4 -4 -3 -3 -3 -2 -1 -0 0 2 3 5 6 7 7 7 6 7 7 7 6 6 7 7 7 6 6 6 5 5 3 5 5 4 4 3 3 3 3 3
-5 -5 -5 -5 -4 -4 -4 -3 -2 -1 -1 1 1 2 3 5 6 7 7 6 7 7 8 7 7 6 6 6 7 7 6 6 5 5 4 5 5 5 4 3 3 3 3 3
-5 -5 -4 -5 -4 -4 -4 -4 -2 -1 -1 -0 2 2 2 3 5 6 7 7 7 8 8 8 7 6 6 6 6 7 7 6 5 6 5 5 5 5 5 4 3 3 2 3

GFSCGP_700_temp_033.txt.gz
Temp
-2 -2 -1 -1 -1 -0 1 1 3 3 4 4 5 5 6 8 9 9 10 11 11 12 13 13 13 12 12 12 12 11 12 11 12 12 12 12 12 12 12 11 11 11 10 10
-3 -2 -2 -3 -2 -1 -1 0 1 2 3 4 4 5 5 6 8 9 10 11 11 12 12 12 12 12 11 12 12 12 11 11 12 12 12 12 12 12 11 11 11 10 10 10
-2 -2 -2 -2 -2 -1 -1 -0 1 1 2 2 2 3 4 6 6 8 9 10 11 12 12 12 12 12 11 11 11 11 11 11 11 12 12 12 12 11 11 11 10 10 10 9
-3 -2 -2 -2 -2 -1 -1 -1 0 1 1 3 3 5 6 5 7 8 9 10 11 11 11 11 12 12 11 11 11 11 11 11 11 12 12 12 11 11 10 10 10 10 10 9
-3 -3 -2 -2 -2 -1 -1 -1 -0 0 1 1 2 3 5 5 7 8 9 10 10 11 11 11 11 12 11 11 11 11 11 11 12 12 12 12 11 11 10 10 10 10 9 9
-4 -3 -3 -2 -2 -2 -1 -1 -1 -0 0 2 2 2 5 6 6 7 9 9 10 10 11 11 11 12 12 11 11 11 11 12 12 12 12 11 11 11 10 10 10 9 9 8
-4 -3 -3 -2 -2 -2 -2 -1 1 1 1 2 3 2 4 7 6 6 8 9 9 10 9 10 11 11 11 11 12 12 12 12 12 12 12 11 11 10 10 10 10 9 8 8
-4 -4 -3 -2 -2 -2 -1 -1 1 1 3 3 2 3 4 5 7 8 8 9 9 9 10 10 10 11 11 11 11 12 12 12 12 12 11 11 10 10 10 10 9 9 8 7
-5 -3 -3 -3 -2 -2 -1 -1 -0 0 1 3 3 3 4 4 8 7 7 8 9 9 10 11 11 11 11 11 12 12 12 12 11 11 10 10 11 11 10 9 9 8 7 6
-5 -5 -3 -4 -3 -2 -2 -1 -0 -0 2 3 4 4 5 5 7 7 7 7 9 10 11 11 11 11 11 12 12 11 11 11 11 11 11 11 10 10 9 8 7 7 6 6
-5 -5 -3 -3 -3 -4 -3 -3 -0 0 1 3 4 6 5 4 4 6 6 7 9 11 11 11 11 11 11 11 11 11 11 11 11 11 11 10 9 8 8 7 7 6 6 5
-5 -5 -4 -3 -3 -3 -3 -3 -2 0 2 1 2 3 3 4 5 6 7 8 8 11 11 11 11 11 11 11 11 11 10 11 11 11 10 9 8 8 7 7 6 6 5 5
-5 -5 -4 -2 -3 -3 -3 -3 -3 -3 -2 0 2 3 4 4 5 5 7 7 7 9 11 11 11 11 11 11 11 11 11 11 10 9 8 8 8 7 7 6 6 5 5 5
-6 -6 -5 -3 -3 -5 -4 -4 -4 -4 -2 0 0 1 2 2 3 5 5 5 6 7 9 11 11 10 10 10 10 11 10 10 9 8 8 8 7 7 7 6 5 5 5 5
-6 -6 -6 -6 -5 -5 -5 -4 -4 -3 -3 -3 -0 -0 1 -0 2 3 5 5 5 6 8 10 10 10 10 10 11 10 10 9 8 8 8 7 7 6 5 5 5 5 4 4
-6 -6 -6 -6 -5 -5 -4 -4 -4 -4 -4 -3 -3 -2 -0 1 2 2 5 5 5 5 8 9 9 9 10 10 9 9 9 8 8 8 7 6 5 5 4 4 4 4 4 4
-6 -6 -6 -5 -5 -5 -4 -3 -2 -3 -3 -3 -3 -2 1 2 2 2 5 5 5 5 8 8 8 9 9 9 9 8 8 8 7 7 5 5 5 5 5 5 4 4 4 4
-6 -6 -6 -5 -6 -5 -2 -3 -4 -4 -3 -3 -2 0 1 1 2 3 5 5 6 5 8 9 8 8 8 8 8 7 7 7 6 5 5 5 5 5 5 5 4 4 4 4
-6 -6 -6 -5 -5 -4 -4 -3 -4 -4 -3 -3 -1 1 1 1 1 6 5 6 6 6 8 8 8 8 8 8 8 7 7 6 5 5 5 5 5 5 5 5 4 4 4 4
-5 -6 -6 -6 -5 -4 -4 -4 -4 -4 -4 -1 0 0 1 1 2 6 5 6 5 7 7 8 8 8 8 8 8 7 6 6 5 5 5 5 4 4 4 4 4 4 4 4
-5 -6 -6 -6 -6 -5 -4 -5 -5 -4 -2 -2 -2 -0 1 2 4 4 6 5 6 7 8 8 8 8 8 8 7 7 6 5 5 4 4 4 4 4 4 3 3 3 3 3
-5 -5 -5 -5 -5 -4 -4 -4 -5 -4 -2 -2 -2 -0 1 3 3 5 6 5 6 7 8 8 8 7 8 7 7 6 5 5 5 4 5 5 4 4 3 3 3 3 3 3
-5 -5 -5 -5 -4 -4 -4 -4 -3 -3 -3 -2 -2 -1 2 3 5 5 6 5 6 7 7 8 7 7 7 7 6 6 6 5 5 5 4 4 4 4 3 3 3 3 3 2
-5 -5 -4 -5 -5 -4 -4 -4 -3 -2 -3 -2 -1 -0 2 3 5 6 5 6 6 7 7 8 7 7 7 7 6 5 5 5 4 4 3 4 4 4 3 3 3 3 3 3
-5 -4 -4 -4 -4 -4 -4 -4 -3 -2 -2 -2 -0 -0 1 4 5 5 5 6 7 7 7 7 6 6 6 6 6 6 5 5 4 4 3 4 4 4 3 3 3 3 3 3
-5 -4 -4 -5 -5 -5 -5 -4 -3 -2 -1 -0 -0 0 2 3 5 5 5 6 6 7 8 7 6 6 5 5 6 6 5 5 5 4 4 4 4 4 4 3 3 3 3 3